Flag Weather past 2 weeks in Eberswalde, Brandenburg, Germany

Now
46 °F

Scattered clouds.


Feels Like: 44 °F
Forecast: 38 / 44 °F
Wind: 6 mph from West

Location: Berlin-Tegel

Current Time: Nov 24, 2014 at 4:32:47 PM

Latest Report: Nov 24, 2014 at 3:50 PM


Visibility: N/A

Pressure: 30.18 "Hg

Humidity: 87%

Dew point: 43 °F

Location of EberswaldeLocation

Historic Weather in Eberswalde — Graph

°F

Eberswalde temperature yesterday

Maximum temperature yesterday: 48 °F (at 1:50 PM)
Minimum temperature yesterday: 39 °F (at 1:20 AM)
Average temperature yesterday: 43 °F

Past Weeks' High & Low Weather Summary

 TemperatureHumidityPressure
High54 °F (Nov 11, 2:20 PM)100% (Nov 11, 2:50 AM)30.36 "Hg (Nov 11, 2:50 AM)
Low39 °F (Nov 19, 2:20 AM)66% (Nov 23, 1:50 PM)29.56 "Hg (Nov 16, 1:20 PM)
Average46 °F89%29.98 "Hg
* Reported Nov 9 3:20 PM — Nov 24 3:20 PM, Eberswalde, Weather by CustomWeather, © 2014

Note: Actual official high and low records may vary slightly from our data, if they occured in-between our weather recording intervals... More about our weather records

Advertising

Eberswalde weather history for previous 24 hours

 ConditionsComfort  
Time TempWeatherWind HumidityBarometerVisibility
3:20 PM
Nov 24
48 °FPartly sunny.6 mph87%30.18 "HgN/A
2:50 PM48 °FScattered clouds.7 mph87%30.18 "HgN/A
2:20 PM48 °FPartly sunny.7 mph94%30.15 "HgN/A
1:50 PM48 °FBroken clouds.6 mph94%30.15 "HgN/A
1:20 PM48 °FLight rain. Broken clouds.6 mph94%30.15 "HgN/A
12:50 PM46 °FLight rain. Broken clouds.10 mph100%30.15 "Hg5 mi
12:20 PM46 °FLight rain. Broken clouds.8 mph100%30.15 "Hg2 mi
11:50 AM45 °FRain. Partly sunny.6 mph100%30.12 "Hg2 mi
11:20 AM45 °FLight rain. Partly sunny.6 mph93%30.12 "Hg5 mi
10:50 AM45 °FLight rain. Partly sunny.5 mph93%30.09 "Hg5 mi
10:20 AM45 °FRain. Partly sunny.6 mph87%30.12 "Hg6 mi
9:50 AM45 °FLight rain. Broken clouds.7 mph81%30.12 "HgN/A
9:20 AM45 °FLight rain. Partly sunny.6 mph81%30.09 "HgN/A
8:50 AM45 °FLight rain. Partly sunny.7 mph76%30.09 "HgN/A
8:20 AM45 °FLight rain. Partly sunny.8 mph76%30.09 "HgN/A
7:50 AM43 °FPassing clouds.6 mph81%30.07 "HgN/A
7:20 AM43 °FClear.6 mph81%30.07 "Hg10 mi
6:50 AM43 °FClear.7 mph81%30.04 "Hg10 mi
6:20 AM43 °FClear.6 mph81%30.04 "Hg10 mi
5:50 AM43 °FClear.9 mph81%30.04 "Hg10 mi
5:20 AM43 °FClear.8 mph81%30.07 "Hg10 mi
4:50 AM43 °FClear.8 mph81%30.07 "Hg10 mi
4:20 AM43 °FClear.9 mph81%30.07 "Hg10 mi
3:50 AM43 °FClear.12 mph81%30.07 "Hg10 mi
3:20 AM43 °FClear.10 mph81%30.09 "Hg10 mi
2:50 AM43 °FClear.10 mph81%30.07 "Hg10 mi
2:20 AM43 °FClear.13 mph81%30.09 "Hg10 mi
1:50 AM43 °FClear.12 mph81%30.09 "Hg10 mi
1:20 AM43 °FClear.12 mph81%30.09 "Hg10 mi
12:50 AM43 °FClear.10 mph81%30.12 "Hg10 mi
12:20 AM43 °FClear.12 mph81%30.12 "Hg10 mi
11:50 PM
Nov 23
43 °FClear.9 mph81%30.12 "Hg10 mi
11:20 PM43 °FClear.9 mph81%30.15 "Hg10 mi
10:20 PM43 °FClear.12 mph81%30.15 "Hg10 mi
9:20 PM43 °FClear.10 mph87%30.15 "Hg10 mi
8:50 PM45 °FClear.12 mph81%30.15 "Hg10 mi
8:20 PM45 °FClear.14 mph81%30.15 "Hg10 mi
7:50 PM45 °FClear.12 mph81%30.15 "Hg10 mi
7:20 PM45 °FClear.12 mph81%30.18 "Hg10 mi
6:50 PM45 °FClear.10 mph81%30.18 "Hg10 mi
6:20 PM45 °FClear.12 mph81%30.18 "Hg10 mi
5:50 PM45 °FClear.13 mph81%30.18 "Hg10 mi
5:20 PM45 °FClear.13 mph81%30.18 "Hg10 mi
4:50 PM45 °FClear.12 mph81%30.18 "Hg10 mi
4:20 PM46 °FClear.10 mph76%30.21 "Hg10 mi
Weather by CustomWeather, © 2014

See weather overviewHow to use our weather pages